SPACEBEE-7

Last updated on Wed Oct 29 2025 00:03:53 GMT+0000 (Coordinated Universal Time)

1 43816U 18099BL 25301.17383247 .00077068 00000+0 14131-2 0 9994 2 43816 97.4789 14.9190 0003984 321.5947 38.5019 15.49014211378458
UTC large
Height (km)
Speed (km/s)
/
Latitude / Longitude
Inclination (degrees)
Orbital Period (minutes)
Azimuth
Elevation
Range (km)
Doppler Factor

Next 0 passes for location: London (51.5072 / 0.1276)

Sorry there are no passes over London.